Regional Weather Roundup
Issued by NWS Wakefield, VA

Home | Current Version | Previous Version | Graphics & Text | Print | Product List | Glossary On
Versions: 1 2 3 4 5 6 7 8 9 10 11 12 13 14 15 16 17 18 19 20 21 22 23 24 25 26 27 28 29 30 31 32 33 34 35 36 37 38 39 40 41 42 43 44 45 46 47 48 49 50
000
ASUS41 KAKQ 290210
RWRAKQ

REGIONAL WEATHER ROUNDUP
NATIONAL WEATHER SERVICE WAKEFIELD VA
900 PM EST FRI NOV 28 2014

Note: "fair" indicates few or no clouds below 12,000 feet with no
significant weather and/or obstructions to visibility. * = Denotes
station may not report precipitation (e.g., rain,snow,etc.),
thunder or fog.

VAZ042-051-052>054-056-290300-
NORTHERN VIRGINIA

CITY           SKY/WX    TMP DP  RH WIND       PRES   REMARKS
WASH NATIONAL  PTCLDY    36  17  46 NW5       30.31S
DULLES         CLEAR     24  19  81 CALM      30.29F
FORT BELVOIR   CLEAR     25  22  86 SE2       30.30F
QUANTICO       CLEAR     30  22  72 NW3       30.31F
FREDERICKSBRG* FAIR      27  22  80 CALM      30.30F
STAFFORD*      CLEAR     25  21  85 CALM      30.34F
WARRENTON      CLEAR     23  23 100 CALM      30.28S
CULPEPER*      CLEAR     25  21  86 CALM      30.28S
MANASSAS*      CLEAR     25  21  86 CALM      30.30F
LEESBURG*      CLEAR     30  23  74 CALM      30.29F
WINCHESTER     PTCLDY    27  18  69 CALM      30.25S
FRONT ROYAL*   CLEAR     28  21  74 CALM      30.24F
LURAY*         MOCLDY    28  23  80 CALM      30.24F
$$

VAZ048-049-060>072-079>083-290300-
CENTRAL AND SOUTH CENTRAL VIRGINIA

CITY           SKY/WX    TMP DP  RH WIND       PRES   REMARKS
RICHMOND       CLEAR     30  22  72 CALM      30.30S
CHESTERFIELD*  CLEAR     27  12  54 CALM      30.31S
PETERSBURG*    CLEAR     28  27  96 CALM      30.31S
HANOVER        CLEAR     27  22  81 CALM      30.31F
TAPPAHANNOCK*  CLEAR     27  22  82 CALM      30.31F
QUINTON*       CLEAR     28  24  82 CALM      30.31S
CHARLOTTSVILLE CLEAR     31  18  58 SE3       30.26F
GORDONSVILLE*  CLEAR     26  21  80 CALM      30.28S
ORANGE*        CLEAR     28  23  80 CALM      30.29S
LOUISA*        CLEAR     25  19  80 CALM      30.26F
BUMPASS*       CLEAR     27  21  80 CALM      30.28F
FARMVILLE*     CLEAR     27  22  79 CALM      30.27F
CREWE*         CLEAR     27  24  88 CALM      30.29S
FORT PICKETT*  CLEAR     29  24  84 CALM      30.30S
CHASE CITY*    CLEAR     30  27  90 CALM      30.29S
CLARKSVILLE*   CLEAR     28  27  93 CALM      30.29F
SOUTH HILL*    CLEAR     27  25  92 CALM      30.36S
LAWRENCEVILLE* CLEAR     29  25  86 CALM      30.30S
$$

VAZ088>098-290300-
SOUTHEAST VIRGINIA

CITY           SKY/WX    TMP DP  RH WIND       PRES   REMARKS
NORFOLK        CLEAR     31  24  75 SW3       30.31S
VIRGINIA BEACH CLEAR     33  25  72 SW3       30.31R
NORFOLK NAVAL  CLEAR     36  24  62 CALM      30.33R
WEST POINT*    CLEAR     29  24  82 CALM      30.33S
SALUDA*        FAIR      28  23  81 CALM      30.32R
NEWPORT NEWS   CLEAR     33  24  69 CALM      30.32R
LANGLEY AFB    CLEAR     30  26  83 SW2       30.33R
FORT EUSTIS    CLEAR     30  23  75 E2        30.30R
WILLIAMSBURG*  CLEAR     32  28  86 CALM      30.32S
HR EXEC AP*    CLEAR     27  21  80 CALM      30.34R
FRANKLIN*      CLEAR     27  27 100 CALM      30.32S
WAKEFIELD      CLEAR     29  25  85 CALM      30.31S
$$

VAZ020-022-025-037-045-290300-
WEST CENTRAL AND SOUTHWEST VIRGINIA

CITY           SKY/WX    TMP DP  RH WIND       PRES   REMARKS
STAUNTON*      CLEAR     28  18  66 SE3       30.24F
WAYNESBORO*    CLEAR     29  16  58 SW5       30.22S
HOT SPRINGS VA CLEAR     22  15  74 W14       30.09S WCI   9
LYNCHBURG      CLEAR     25  19  78 CALM      30.26F
DANVILLE       CLEAR     29  22  75 S5        30.29F
SOUTH BOSTON*  CLEAR     29  24  81 CALM      30.29F
MARTINSVILLE   CLEAR     27  23  84 CALM      30.30R
ROANOKE        CLEAR     30  18  60 NW5       30.26F
BLACKSBURG     CLEAR     25  21  86 CALM      30.23F
DUBLIN*        CLEAR     28  23  82 SW6       30.22F
MARION*        CLEAR     26  21  82 CALM      30.22F
HILLSVILLE*    CLEAR     27  18  70 S5        30.20S
RICHLANDS*     CLEAR     31  20  65 S5        30.17F
WISE*          CLEAR     30  18  59 S6        30.17F
ABINGDON*      CLEAR     29  23  77 CALM      30.22F
$$

MDZ021>025-VAZ099-100-290300-
SOUTHERN MARYLAND AND THE DELMARVA PENINSULA

CITY           SKY/WX    TMP DP  RH WIND       PRES   REMARKS
PATUXENT RIVER PTCLDY    26  20  77 CALM      30.31S
BAY BRIDGE APT   N/A     34  19  55 NW3       30.31S
LEONARDTOWN    CLEAR     28  21  74 CALM      30.33R
DOVER          CLEAR     28  18  65 W5        30.28R
GEORGETOWN     CLEAR     28  19  69 CALM      30.31R
EASTON         NOT AVBL
CAMBRIDGE      CLEAR     30  23  74 CALM      30.31R
SALISBURY      CLEAR     28  22  78 CALM      30.31R
OCEAN CITY     CLEAR     26  21  81 CALM      30.31R
WALLOPS ISLAND CLEAR     29  22  75 N3        30.32R
ACCOMACK*      CLEAR     28  23  80 CALM      30.31R
$$

NCZ012>017-030>032-290300-
NORTH CENTRAL AND EASTERN NORTH CAROLINA

CITY           SKY/WX    TMP DP  RH WIND       PRES   REMARKS
ROANOKE RAPIDS CLEAR     30  28  93 SW3       30.32S
RALEIGH        CLEAR     31  24  75 CALM      30.31F
ELIZABETH CITY CLEAR     31  24  75 SW3       30.33R
AHOSKIE*       CLEAR     28  25  91 CALM      30.33S
EDENTON*         N/A     30  27  86 CALM      30.32F
CURRITUCK*     CLEAR     32  28  84 CALM      30.32F
KILL DEVIL HLS CLEAR     37  22  54 CALM      30.30S
MANTEO         CLEAR     38  23  55 N5        30.32S
CAPE HATTERAS  PTCLDY    39  25  57 VRB3      30.32S
TARBORO*       CLEAR     30  28  94 CALM      30.34S
GOLDSBORO      CLEAR     31  30  97 CALM      30.31F
WASHINGTON     CLEAR     30  27  88 CALM      30.34R
GREENVILLE     CLEAR     32  30  93 CALM      30.33S
NEW BERN       CLEAR     33  28  81 CALM      30.35R
WILMINGTON     CLEAR     33  30  88 CALM      30.34S
$$

VAZ048-290300-
ELSEWHERE

CITY           SKY/WX    TMP DP  RH WIND       PRES   REMARKS
HARRISBURG PA  FAIR      27  15  61 NW9       30.27F
BALTIMORE      PTCLDY    27  20  75 CALM      30.29S
ANNAPOLIS      CLEAR     31  18  58 CALM      30.31R
ANDREWS AFB    CLEAR     31  18  57 E1        30.29S
PHILADELPHIA   MOCLDY    32  17  54 W7        30.29S
WILDWOOD NJ*   CLEAR     30  16  55 CALM      30.29R
HENDERSON NC   CLEAR     29  26  89 CALM      30.29F
GREENSBORO     PTCLDY    34  22  61 CALM      30.27S
ROCKY MOUNT    CLEAR     29  25  85 CALM      30.33R
$$

VAZ100-290300-
MARINE

STATION/POSITION TIME  TEMP    WIND        PRES    WAVE   SWELL
                       AIR SEA DIR/SP/G            HT/PER HT/PER
                 (UTC) (F)     (DEG/KT/KT) (MB)    (FT/S) (FT/S)
CAPE MAY NJ      0200   35 43  340/  6/ 11 1025.4R
LEWES DE         0200   32 45  260/  4/  5 1025.8R
15NM E FENWICK I 0200   38 53              1025.6R   3/ 4
OCEAN-CITY-INLET 0200   33 46  310/  4/  5 1025.8R
WACHAPREAGUE VA  0200   30 44  300/  1/  2 1026.3R
THOMAS POINT MD  0200   35 46  290/  8/  9 1027.3S
GOOSES REEF MD   0200   37 46   CALM  /  8 1026.9R   1
COVE POINT MD    0200   36     340/  7/ 11 1026.3R
SOLOMONS ISLAND  0200      48                N/A
BISHOPS HEAD MD  0200   34 42  340/  4/  5 1025.9S
PINEY POINT MD   0200           40/  3/  4   N/A
POTOMAC MD       0200   37 47   10/  6/  6 1025.7S   1/ 3
CAMBRIDGE MD     0200   33 44  230/  4/  5 1026.1F
LEWISETTA VA     0200   35 45  290/  2/  2 1026.3S
RAPPAHANNOCK LGT 0200          320/  7/  8 1026.8S
STINGRAY PT      0200   39 48  350/  8/  8 1026.9R   1
YORK RVR RNG VA  0200   40      20/  6/  7 1026.0S
YORKTOWN VA      0200   38 49  290/  2/  3 1026.3R
JAMESTOWN VA     0200   36 48  270/  2/  4   N/A     0
DOMINION TERM VA 0200   39      20/  1/  2 1026.5S
KIPTOPEKE VA     0200      52  310/  7/  9   N/A
CHES BAY BRIDGE  0200   41 49  300/  4/  6 1025.9R
CAPE HENRY VA    0200   38     240/  5/  5 1025.0R
CHESAPEAKE LGHT  0100   41     330/  8/ 11 1026.7R
WILLOUBY STN VA  0200   40      10/  3/  3 1025.1R
S CRANEY ISL VA  0200          220/  4/  4 1026.5R
CAPE HENRY BUOY  0100      54                N/A     3/ 6
1ST LANDING BUOY 0200   42 50  300/  6/ 10 1025.9R   1/ 3
CAPE CHARLES BUO 0200      53                N/A     2/ 9   2/ 9
64NM E OF VA BCH 0200   44 62  330/ 14/ 17 1025.3S   5/ 7   3/ 7
DUCK PIER NC     0200   41 52  320/  8/  9 1025.8S
44100 DUCK FRF   0200      56                N/A     4/ 7   2/11
44056 DUCK FRF   0200      53                N/A     4/ 7   2/13
OREGON INLET NC  0200   38 53  330/  4/  5 1026.6R
HATTERAS NC      0200   43 53  330/ 10/ 13 1026.9F
DIAMOND SHLS NC  0200   42     330/ 10/ 16 1026.8R   4/ 8   3/ 8
CAPE LOOKOUT NC  0100   43     350/  8/  9 1026.9R
$$


USA.gov is the U.S. government's official web portal to all federal, state and local government web resources and services.